星链-6142 (STARLINK-6142 )

导读

STARLINK-6142是美国SpaceX公司星链星座的一员,于2023年6月23日发射升空,属于低地球轨道互联网卫星。它质量约297公斤,运行在约548公里高度轨道,依托猎鹰9号火箭部署。作为星链全球宽带网络组成部分,它通过星间激光通信与相位阵列技术,为偏远地区提供低延迟高速互联网服务,助力实现全球网络覆盖目标。

基本信息
目录编号:
57113
目录名称:
STARLINK-6142
国际标识:
2023-090N
轨道中心:
EARTH
卫星名称:
星链-6142
卫星全名:
星链-6142 (STARLINK-6142 )
卫星状态:
在轨 (已飞行1170 天)
发射日期:
2023-06-23 UTC
国别 :
美国 (US)
星等 :
--
轨道信息
数据来源 国际轨道数据
星历时间: 2026-09-04T15:35:55+0800
1天前
查看轨道信息
半长轴: 6861.196km
偏心率: 0.0001299
轨道倾角: 43.003°
近地点辐角 269.710°
升交点赤经 352.546°
平近点角 90.360°
近地点: 482.167km
远地点: 483.951km
周期: 94.267分钟
每日圈数: 15.27577
详细信息
固有亮度:
5
最大亮度:
2.4
卫星平台:
Starlink v1.5
覆盖范围:
全球
运营商:
太空探索技术公司
运营商所在国:
美国
制造商(研发单位):
太空探索技术公司
制造商所在国:
美国
使用方式:
暂无
卫星简介
星链(Starlink)计划是由太空探索技术公司(SpaceX)提出的一个巨型低轨卫星互联网星座项目,计划在2019年至2024年间在太空搭建由约1.2万颗卫星组成的“星链”网络,其中1584颗将部署在地球上空550千米处的近地轨道,并从2020年开始工作。该卫星仍在工作。
2D轨道图
3D轨道图
轨道高度分析图
轨道倾角分析图
轨道综合分析图
查看轨道综合分析图
交会数据列表
事件ID 空间交会对象 最接近时刻(TCA) 交会距离 交会风险概率(CRP) 交会风险指数(CRI) 操作
CDM_260902-231303-886305-711327
2026-09-02T
23:13:02+0000
1.083 km
极远距离
1.380575E-5 中风险 0.58
CDM_260907-121005-711306-357021
2026-09-07T
12:10:17+0000
1.323 km
极远距离
4.110436E-6 低风险 0.47
CDM_260906-133805-711306-386621
2026-09-06T
13:38:29+0000
2.663 km
极远距离
1.43021E-6 低风险 0.38
CDM_260907-020904-380405-711324
SUOMI100 (43804)
2026-09-07T
02:09:22+0000
2.648 km
极远距离
1.078029E-6 低风险 0.36
CDM_260907-163903-825705-711321
2026-09-07T
16:39:42+0000
2.849 km
极远距离
1.070279E-6 低风险 0.36
CDM_260907-155203-825705-711322
2026-09-07T
15:52:36+0000
2.935 km
极远距离
1.031166E-6 低风险 0.35
CDM_260907-103605-711306-357021
2026-09-07T
10:36:07+0000
2.438 km
极远距离
8.477462E-7 极低风险 0.34